Location: St Paul
(44.9440°N, 93.0930°W)
Time: 16:07:40
(UTC-06:00)

Envisat - Visible Passes

Search period start: 18 February 2018 00:00
Search period end: 28 February 2018 00:00
Orbit: 764 x 766 km, 98.2° (Epoch: 18 February)

Date Brightness Start Highest point End Pass type
(mag) Time Alt. Az. Time Alt. Az. Time Alt. Az.
18 Feb 4.5 18:09:55 10° E 18:12:58 16° ENE 18:16:02 10° NNE visible
18 Feb 3.1 19:46:19 10° S 19:51:22 75° WSW 19:56:29 10° NNW visible
19 Feb 3.1 19:09:48 10° SE 19:14:43 52° ENE 19:19:39 10° N visible
19 Feb 5.3 20:50:16 10° SW 20:54:02 21° W 20:57:50 10° NW visible
20 Feb 4.0 18:34:07 10° ESE 18:38:15 26° ENE 18:42:24 10° N visible
20 Feb 4.1 20:12:13 10° S 20:17:02 43° W 20:21:54 10° NNW visible
21 Feb 2.9 19:35:10 10° SSE 19:40:14 88° ENE 19:45:22 10° NNW visible
21 Feb 5.9 21:18:06 10° WSW 21:19:57 12° W 21:21:47 10° WNW visible
22 Feb 3.4 18:58:53 10° SE 19:03:38 42° ENE 19:08:24 10° N visible
22 Feb 5.0 20:38:36 10° SSW 20:42:48 26° W 20:47:01 10° NW visible
23 Feb 4.2 18:23:28 10° ESE 18:27:14 21° ENE 18:31:00 10° NNE visible
23 Feb 3.6 20:00:54 10° S 20:05:51 55° W 20:10:52 10° NNW visible
24 Feb 2.9 19:24:05 10° SSE 19:29:07 71° ENE 19:34:11 10° N visible
24 Feb 5.7 21:05:46 10° SW 21:08:40 15° W 21:11:34 10° NW visible
25 Feb 3.6 18:48:02 10° SE 18:52:34 34° ENE 18:57:08 10° N visible
25 Feb 4.6 20:27:04 10° SSW 20:31:35 32° W 20:36:07 10° NNW visible
26 Feb 3.2 19:49:39 10° S 19:54:42 69° WSW 19:59:47 10° NNW visible
27 Feb 3.0 19:13:03 10° SSE 19:18:00 57° ENE 19:23:00 10° N visible
27 Feb 5.4 20:53:50 10° SW 20:57:24 19° W 21:00:58 10° NW visible
